Regional Weather Roundup
Issued by NWS

Home | Current Version | Previous Version | Graphics & Text | Print | Product List | Glossary On
Versions: 1 2 3 4 5 6 7 8 9 10 11 12 13 14 15 16 17 18 19 20 21 22 23 24 25 26 27 28 29 30 31 32 33 34 35 36 37 38 39 40 41 42 43 44 45 46 47 48 49 50
000
ASUS43 KBIS 210102
RWRND

NORTH DAKOTA REGIONAL WEATHER ROUNDUP
NATIONAL WEATHER SERVICE BISMARCK ND
700 PM CST TUE FEB 20 2018

NOTE: "FAIR" INDICATES FEW OR NO CLOUDS BELOW 12,000 FEET WITH NO
SIGNIFICANT WEATHER AND/OR OBSTRUCTIONS TO VISIBILITY.


NDZ001>003-009>011-017-210200-
NORTHWEST NORTH DAKOTA

CITY           SKY/WX    TMP DP  RH WIND       PRES   REMARKS
WILLISTON      FAIR       1  -8  66 SW14      30.15R WCI -17
MINOT          FAIR       5  -4  66 SW15      30.10R WCI -13
MINOT AFB      FAIR       3  -5  69 W13       30.09R WCI -14
$$

NDZ018>021-031>035-040>046-210200-
SOUTHWEST NORTH DAKOTA

CITY           SKY/WX    TMP DP  RH WIND       PRES   REMARKS
BISMARCK       FAIR       5  -4  66 W8        30.22R WCI  -8
DICKINSON      FAIR      -4 -10  75 W13       30.12R WCI -23
GARRISON         N/A      0  -7  72 W13       30.14R WCI -18
HETTINGER ARPT FAIR      -2  -9  72 W16       30.17R WCI -23
$$

NDZ004>008-012>016-024-026-027-054-210200-
NORTHEAST NORTH DAKOTA

CITY           SKY/WX    TMP DP  RH WIND       PRES   REMARKS
GRAND FORKS    FAIR       5  -2  72 SW7       30.19R WCI  -7
DEVILS LAKE    FAIR       3  -2  79 SW12      30.14R WCI -13
$$

NDZ022-023-025-028>030-036>039-047>053-210200-
SOUTHEAST NORTH DAKOTA

CITY           SKY/WX    TMP DP  RH WIND       PRES   REMARKS
FARGO          FAIR       4  -2  76 W8        30.24R WCI  -9
JAMESTOWN      FAIR       5  -2  72 W7        30.18R WCI  -7
$$





USA.gov is the U.S. government's official web portal to all federal, state and local government web resources and services.